Вернуться в каталог

FENGYUN 1C DEB

АктивенSSO
NORAD 31158·DEBRIS·🇨🇳 China

Запущен May 10, 1999 с Taiyuan Satellite Launch Center

Loading…

Ближайшие Пролёты (ближайшие 24 часа)

TLE

СвежийSource: Space-Track

Эпоха: Sep 13, 2026, 12:11 UTC

1 31158U 99025BHL 26256.50829241  .00002189  00000-0  76931-3 0  9994
2 31158  98.7695 344.3259 0044564 304.2942  55.4028 14.35432842684199

Отслеживайте FENGYUN 1C DEB в реальном времени с AllMySat

Download on the App Store